Regional Weather Roundup
Issued by NWS

Home | Current Version | Previous Version | Text Only | Print | Product List | Glossary Off
Versions: 1 2 3 4 5 6 7 8 9 10 11 12 13 14 15 16 17 18 19 20 21 22 23 24 25 26 27 28 29 30 31 32 33 34 35 36 37 38 39 40 41 42 43 44 45 46 47 48 49 50

000
ASUS43 KOAX 170410
RWRNE

WEATHER ROUNDUP FOR NEBRASKA
NATIONAL WEATHER SERVICE OMAHA NE
1100 PM CDT MON OCT 16 2017

NOTES: SATELLITE DATA IS BEING USED TO AUGMENT CLOUD COVER ABOVE
       12000 FEET.
       "FAIR" INDICATES FEW OR NO CLOUDS BELOW 12,000 FEET WITH NO
       SIGNIFICANT WEATHER AND/OR OBSTRUCTIONS TO VISIBILITY.


NEZ001>004-019>022-054>056-170500-
NEBRASKA PANHANDLE

CITY           SKY/WX    TMP DP  RH WIND       PRES   REMARKS
SCOTTSBLUFF    CLEAR     42  27  55 S6        30.19R
ALLIANCE       CLEAR     34  27  75 W6        30.17R WCI  29
CHADRON        CLEAR     43  28  55 SW5       30.14R
GORDON         FAIR      37  31  79 CALM      30.14R
KIMBALL        CLOUDY    46  23  40 NW6       30.23S
SIDNEY         CLEAR     40  25  55 W7        30.22R
$$

NEZ057>060-069>072-079>082-170500-
SOUTHWEST NEBRASKA

CITY           SKY/WX    TMP DP  RH WIND       PRES   REMARKS
NORTH PLATTE   CLEAR     43  36  76 W7        30.12R
IMPERIAL       CLEAR     50  31  48 W8        30.14S
LEXINGTON      CLEAR     56  36  48 N3        30.10R
MCCOOK         PTCLDY    57  39  51 W9        30.11R
OGALLALA       CLOUDY    49  32  52 SW3       30.16R
$$

NEZ005>010-023>029-035>040-094-170500-
NORTH CENTRAL NEBRASKA

CITY           SKY/WX    TMP DP  RH WIND       PRES   REMARKS
VALENTINE      CLEAR     47  33  58 W5        30.10R
AINSWORTH      CLEAR     46  37  68 W5        30.09R
BROKEN BOW     CLOUDY    49  38  65 CALM      30.08R
O`NEILL        CLEAR     53  41  63 S5        30.05F
ORD            CLEAR     51  36  56 CALM      30.06R
THEDFORD       CLEAR     47  32  55 W5        30.12S
$$

NEZ041-046>049-061>064-073>077-083>087-170500-
SOUTH CENTRAL NEBRASKA

CITY           SKY/WX    TMP DP  RH WIND       PRES   REMARKS
GRAND ISLAND   MOCLDY    59  38  45 S14       30.09R
AURORA         MOCLDY    56  37  48 S12G17    30.10S
HASTINGS       CLOUDY    59  36  42 S10       30.11S
HEBRON         CLOUDY    56  40  55 S9        30.14S
HOLDREGE       CLEAR     56  37  49 S8        30.10S
KEARNEY        PTCLDY    57  36  45 S13       30.10S
YORK           MOCLDY    55  39  54 S12       30.11S
$$

NEZ011>018-030>034-042>045-170500-
NORTHEAST NEBRASKA

CITY           SKY/WX    TMP DP  RH WIND       PRES   REMARKS
NORFOLK        CLEAR     58  39  49 S14       30.05S
ALBION         CLEAR     56  38  52 SE3       30.08R
BLAIR          PTCLDY    59  41  52 S13       30.11S
COLUMBUS       CLEAR     59  39  47 S13       30.10R
FREMONT        CLEAR     59  40  49 S9        30.11R
TEKAMAH        PTCLDY    57  32  38 S8        30.09S
WAYNE          CLEAR     54  37  52 SW6       30.06S
$$

NEZ050>053-065>068-078-088>093-170500-
SOUTHEAST NEBRASKA

CITY           SKY/WX    TMP DP  RH WIND       PRES   REMARKS
LINCOLN        CLOUDY    59  40  49 S14       30.14S
OMAHA EPPLEY   PTCLDY    57  41  55 S13       30.13R
BEATRICE       CLEAR     57  42  57 S10       30.15F
FALLS CITY     CLEAR     53  40  61 S9        30.18R
NEBRASKA CITY  MOCLDY    55  42  61 SW12      30.16R
PLATTSMOUTH    PTCLDY    57  41  56 S12       30.14S
$$

NEZ044-045-051>053-067-170500-
OMAHA AREA

CITY           SKY/WX    TMP DP  RH WIND       PRES   REMARKS
OMAHA EPPLEY   PTCLDY    57  41  55 S13       30.13R
BLAIR          PTCLDY    59  41  52 S13       30.11S
FREMONT        CLEAR     59  40  49 S9        30.11R
MILLARD        MOCLDY    61  42  49 S5        30.13S
OFFUTT AFB     PTCLDY    49  41  73 E6        30.13S
PLATTSMOUTH    PTCLDY    57  41  56 S12       30.14S
WAHOO          FAIR      58  40  52 S10       30.11S
$$




USA.gov is the U.S. government's official web portal to all federal, state and local government web resources and services.